GFSCGP_500_rhum_057.txt.gz
RH
6 5 11 17 8 5 4 20 31 42 43 50 67 79 66 67 56 38 17 9 5 4 4 6 11 21 20 23 22 14 8 8 16 16 13 23 26 29 27 21 41 34 35 34
6 5 8 19 16 9 6 3 21 47 44 54 56 82 70 68 74 46 32 31 24 8 5 5 4 11 20 21 21 19 10 7 16 11 11 28 32 26 23 8 14 37 36 29
6 6 7 10 22 15 8 5 4 34 54 48 53 84 84 88 82 55 35 26 25 28 16 7 5 4 17 18 21 18 13 5 15 12 12 27 27 21 16 8 14 40 32 20
6 7 7 6 14 24 15 10 5 9 44 39 52 48 61 96 99 84 50 35 46 41 17 11 6 4 8 18 20 17 12 10 12 16 14 23 25 23 17 8 17 44 31 21
6 7 6 7 8 26 26 15 10 6 21 50 37 37 41 44 70 90 66 48 48 52 31 9 6 4 4 16 16 17 15 13 13 14 15 19 21 23 23 9 8 49 27 21
5 6 8 7 14 20 40 24 14 8 7 27 27 24 19 29 23 79 67 52 52 48 44 22 6 5 3 10 15 15 17 13 13 14 13 18 22 26 27 14 5 33 28 19
6 5 6 10 16 18 37 36 24 15 8 3 7 22 9 28 26 76 60 81 76 78 56 33 7 7 4 3 12 15 14 13 20 22 16 18 22 28 24 13 6 7 14 14
6 7 5 8 12 24 22 44 28 18 9 5 5 4 4 20 37 64 64 93 97 82 61 40 8 8 8 4 5 15 17 14 15 25 27 22 19 26 22 12 7 4 7 11
4 7 8 8 13 30 37 38 32 29 19 8 6 4 3 12 25 47 73 96 92 94 74 45 18 8 9 5 5 15 17 16 13 12 13 20 16 22 21 14 7 4 6 21
14 5 7 10 17 31 45 41 63 46 26 12 8 5 3 6 19 26 74 82 87 96 85 55 32 9 9 8 7 16 16 18 20 11 13 14 16 22 21 12 8 6 7 10
20 17 7 9 13 26 35 69 62 58 36 18 11 6 4 4 12 21 60 75 76 98 88 55 46 14 10 10 11 16 19 15 18 15 15 18 19 23 17 13 8 8 11 10
38 24 18 8 10 21 42 72 69 63 45 27 22 10 5 3 6 15 36 78 87 91 94 79 65 51 10 10 14 18 20 18 13 17 19 19 20 20 15 15 12 10 12 11
49 35 22 13 19 34 38 66 74 54 60 40 32 14 8 4 4 15 48 91 83 87 96 100 91 65 91 17 12 15 15 14 15 12 16 19 19 17 15 13 14 8 11 10
49 41 33 21 34 54 56 47 84 66 71 50 42 25 12 6 4 9 80 80 68 75 92 97 97 81 67 27 11 13 14 14 13 11 11 16 18 16 12 15 11 7 9 7
63 36 30 29 33 31 43 41 62 60 62 50 48 34 16 9 7 5 36 78 79 79 82 88 94 81 59 31 14 12 14 13 12 12 9 10 13 12 10 16 7 7 5 3
86 59 44 27 27 34 35 58 45 69 52 46 47 44 26 14 8 6 8 30 58 69 93 92 86 80 60 78 33 19 13 14 14 15 8 9 9 8 17 22 9 5 3 10
82 63 46 36 35 36 31 58 49 60 52 44 51 52 33 19 15 6 8 32 52 82 85 83 76 68 72 73 83 41 18 13 16 18 13 9 6 10 21 20 7 3 10 9
67 71 71 46 44 36 29 62 70 54 62 56 58 64 49 27 20 9 6 20 50 85 64 71 67 72 68 85 96 90 70 23 13 20 17 16 12 12 12 6 3 9 15 22
48 38 41 56 47 44 33 48 96 69 72 67 72 56 46 33 24 17 6 7 30 70 68 54 54 58 52 58 85 97 95 50 16 14 18 17 12 8 5 3 7 17 34 35
63 51 50 52 46 40 31 72 100 76 83 73 75 60 51 42 32 26 13 8 12 27 64 62 54 40 41 67 79 91 95 47 20 13 10 13 9 6 3 9 19 31 42 36
58 43 50 96 45 38 67 95 100 100 78 63 69 57 53 40 36 32 30 12 11 13 24 13 28 33 44 54 75 86 81 73 34 14 8 9 7 4 10 21 29 45 47 48
41 56 98 96 53 68 99 100 100 97 80 69 88 56 55 41 42 44 34 18 32 24 15 35 44 39 40 53 80 74 98 81 59 22 7 6 5 15 24 33 52 60 64 67
100 100 100 100 94 99 96 99 72 98 80 72 86 60 59 48 42 42 41 56 54 21 41 46 49 39 41 61 79 94 94 94 69 36 9 5 9 25 33 48 60 69 78 81
98 100 100 100 98 97 100 99 67 76 73 70 86 57 67 47 39 43 49 62 57 48 46 50 67 61 71 84 91 77 84 72 67 72 53 25 13 35 54 64 68 78 91 95
100 100 100 100 100 99 96 96 74 73 71 91 79 60 70 50 39 45 52 66 60 54 50 48 67 68 83 85 84 82 96 80 69 64 77 93 87 40 52 68 80 81 85 77
100 100 93 75 83 90 98 100 76 68 66 95 80 64 69 60 39 42 51 67 68 69 68 65 63 72 77 87 79 74 92 96 81 76 65 88 98 98 60 55 83 83 85 95

GFSCGP_500_rhum_060.txt.gz
RH
5 6 4 11 16 8 5 6 29 44 76 81 100 98 94 83 68 62 16 4 5 8 14 28 25 24 19 20 22 12 12 14 32 39 38 32 39 32 40 43 34 26 23 14
5 4 7 6 11 16 11 5 8 35 55 84 100 98 98 89 76 73 41 11 6 3 4 8 19 22 20 21 22 14 6 15 23 21 14 22 27 34 27 36 30 32 30 16
6 5 6 6 5 13 16 10 4 24 42 62 95 87 83 78 73 67 49 29 19 8 3 3 5 16 22 22 19 15 6 9 17 12 10 25 27 26 16 10 27 29 23 15
8 6 5 5 7 6 17 17 8 5 26 39 68 80 63 74 74 75 63 49 33 22 8 3 3 4 16 22 20 16 10 7 15 9 8 27 28 20 10 5 30 28 20 21
7 7 6 6 6 8 8 24 14 6 7 34 66 63 100 91 74 70 70 65 50 34 26 18 6 3 6 17 20 16 13 6 13 11 11 24 17 13 8 4 25 32 18 22
6 6 7 7 7 10 11 19 23 13 6 13 21 35 44 96 80 87 80 81 72 56 46 32 32 8 2 10 16 15 14 12 10 15 13 20 17 17 16 10 16 39 21 19
6 6 6 7 7 9 12 12 26 25 14 5 4 16 23 83 91 97 93 87 86 71 57 50 43 20 4 3 13 16 14 13 13 14 15 14 17 20 23 14 4 38 26 17
6 4 6 6 7 10 13 16 15 27 22 9 6 4 6 24 38 52 50 87 94 80 67 59 50 22 5 3 6 16 16 17 14 13 14 13 16 22 26 15 7 4 29 16
10 6 6 6 7 10 16 25 11 52 63 22 24 7 6 11 26 35 36 63 82 85 79 70 57 29 6 4 2 12 17 17 15 13 14 15 18 22 24 16 9 4 5 10
17 14 10 5 5 8 20 19 28 42 75 20 35 18 12 4 7 28 37 76 69 91 91 70 58 34 8 5 3 3 15 18 16 15 23 20 18 21 24 14 9 6 4 8
28 23 18 10 5 5 12 19 68 59 62 26 37 47 17 7 4 18 29 62 72 88 91 79 66 46 14 8 4 3 10 16 16 13 20 22 22 19 22 15 9 5 4 7
41 32 25 18 17 6 13 67 44 100 55 22 68 66 61 15 6 5 27 64 64 91 91 82 90 77 27 11 6 3 7 14 17 14 13 12 14 14 19 17 8 6 7 7
59 51 38 29 23 16 11 10 33 100 100 88 58 34 66 19 8 4 17 63 68 97 88 96 81 90 70 23 10 6 7 14 15 17 14 11 13 14 18 15 9 6 7 10
84 70 54 46 72 55 38 20 20 39 75 71 100 100 53 26 16 6 7 30 70 90 85 86 80 77 82 63 16 11 11 17 16 13 17 16 15 16 20 16 12 8 10 11
74 73 72 57 56 47 27 19 9 12 40 67 98 100 100 29 26 13 5 17 36 69 76 79 81 72 84 76 64 43 13 17 18 15 12 16 18 19 19 16 13 12 9 9
89 83 69 63 59 50 43 22 17 12 14 38 52 70 100 30 24 16 6 9 26 34 70 88 81 73 87 71 70 60 13 13 15 11 8 9 12 19 19 17 14 13 16 7
91 96 86 70 56 45 41 24 15 15 15 19 43 53 56 15 37 27 11 6 30 39 75 95 80 84 92 78 76 66 25 15 14 14 12 9 9 13 16 17 13 13 10 8
88 100 97 72 81 48 38 32 48 26 27 32 31 54 58 25 29 33 18 7 20 75 92 94 78 79 96 88 73 50 59 45 13 14 14 14 10 8 11 12 9 18 12 8
71 74 80 62 88 79 58 38 24 28 49 37 26 40 37 31 33 36 24 15 11 77 91 88 85 78 82 93 85 67 72 59 25 13 14 16 16 7 8 8 8 25 18 5
76 81 95 78 77 47 67 36 26 25 29 20 30 44 37 34 40 48 38 24 11 31 35 80 78 76 81 88 81 80 96 88 65 40 12 14 19 15 8 6 10 19 7 3
99 92 81 76 52 41 46 50 44 30 60 44 49 47 46 48 46 29 28 31 15 9 11 25 62 54 73 82 78 82 95 84 90 86 39 12 14 20 16 12 11 6 3 4
68 54 49 39 53 37 46 50 50 33 38 70 72 85 50 35 42 43 45 43 29 13 9 18 59 63 74 77 72 65 76 89 90 79 64 21 10 13 17 13 7 4 3 12
69 53 74 76 98 57 61 56 55 36 39 77 87 96 48 35 40 51 50 35 29 19 9 9 30 51 67 70 64 63 73 86 83 80 85 32 11 9 11 11 6 3 8 24
100 100 100 100 99 100 37 48 100 72 59 83 85 67 53 37 50 54 47 40 28 21 13 9 13 21 66 61 56 51 57 81 80 91 87 49 19 8 8 8 5 12 26 47
100 100 100 100 100 88 79 92 98 98 79 98 66 62 55 42 62 59 51 44 25 23 24 18 10 13 37 27 34 45 52 76 78 97 76 42 31 8 6 7 15 29 47 61
100 100 100 100 100 95 94 96 96 96 81 97 85 46 51 51 77 69 56 36 27 32 48 25 17 37 38 36 34 40 47 60 78 90 51 48 41 20 8 17 30 48 73 82

GFSCGP_500_rhum_063.txt.gz
RH
6 5 4 5 14 10 11 22 30 79 43 83 60 98 88 85 76 60 42 27 6 14 22 27 25 28 23 20 21 13 12 10 33 43 33 48 54 38 45 34 26 26 16 20
6 5 6 6 6 16 12 7 18 66 93 58 57 65 88 68 71 59 55 43 10 4 9 18 26 26 24 20 22 17 11 10 41 36 22 26 24 36 48 34 28 23 16 17
6 6 7 7 6 5 14 14 8 11 68 94 90 57 89 96 62 60 56 42 33 8 4 8 15 24 24 20 20 20 7 11 31 20 16 22 29 34 33 33 29 24 17 24
8 7 6 6 6 6 6 20 14 6 22 87 62 85 86 56 66 62 56 40 42 27 21 7 3 9 18 24 19 19 6 11 14 17 11 20 23 25 20 21 29 22 14 17
10 8 7 6 6 7 7 15 21 13 6 20 68 75 98 74 83 59 58 47 50 48 35 17 4 3 6 18 20 18 9 5 8 14 9 21 20 17 9 11 31 22 16 15
9 10 8 7 7 6 8 14 15 16 12 7 6 78 80 97 98 79 37 52 56 56 48 34 22 9 3 7 15 14 11 6 9 13 8 15 17 12 7 6 28 27 18 20
8 8 8 8 7 7 8 12 18 23 22 11 4 8 63 97 80 97 46 52 58 66 59 51 43 24 25 4 8 15 12 9 6 12 9 12 16 11 7 7 20 31 18 21
8 21 7 7 8 9 8 10 25 31 34 6 10 5 9 68 98 83 97 70 63 72 69 53 52 46 46 27 4 9 16 14 12 10 13 12 16 16 12 6 8 31 25 22
10 9 53 17 13 7 15 30 9 67 65 47 35 17 9 26 59 64 97 90 96 58 56 55 59 52 53 46 11 3 12 16 13 13 13 14 12 16 20 15 6 4 35 19
21 9 18 28 20 8 17 58 39 41 78 65 49 45 34 21 10 42 47 90 60 97 38 63 60 63 64 54 12 4 5 15 14 14 13 14 11 14 20 21 10 4 7 16
25 19 13 16 6 7 11 11 69 96 76 75 68 51 50 44 27 11 13 39 37 49 31 59 70 80 74 55 21 6 3 9 14 16 15 13 12 12 20 22 14 7 4 6
47 34 24 22 19 12 10 71 37 99 99 81 71 62 61 58 55 30 29 11 37 43 99 77 71 85 73 56 35 8 5 3 12 14 16 15 18 13 18 20 19 8 5 4
58 41 43 38 29 16 13 14 88 88 95 96 81 73 73 70 60 62 30 7 25 55 85 89 80 85 73 59 48 18 8 4 4 14 14 13 21 17 16 18 20 9 6 4
58 64 63 77 92 95 77 35 57 84 97 94 98 85 84 89 80 61 38 11 13 50 70 100 99 88 71 65 51 42 15 8 4 9 14 14 12 16 17 15 18 14 7 5
80 72 73 67 81 90 58 52 88 93 93 94 96 98 90 96 98 95 43 30 52 90 100 93 99 98 73 75 63 69 37 13 7 6 14 15 14 12 11 13 14 16 9 6
71 73 76 65 93 94 75 50 31 21 14 60 94 90 94 96 96 99 66 36 11 16 47 71 87 89 84 76 71 66 76 21 13 10 15 14 16 16 12 15 14 17 13 11
63 67 68 66 89 100 84 69 45 25 16 8 56 53 99 100 97 96 89 39 11 8 17 45 72 84 78 81 80 59 69 72 44 13 16 19 17 14 17 16 17 17 14 14
61 84 99 93 100 100 88 69 70 62 30 19 9 50 93 96 95 99 88 30 17 7 11 39 79 86 84 78 85 62 65 75 69 25 13 17 17 12 12 14 18 18 15 14
71 53 76 100 100 97 94 100 94 68 45 44 52 8 61 98 94 86 100 30 26 15 8 20 53 76 74 73 79 66 60 71 60 56 18 14 16 13 10 9 12 18 16 13
91 83 42 92 99 92 98 100 99 62 39 83 100 88 11 99 95 79 51 48 31 20 10 13 32 42 56 63 84 77 60 68 64 38 22 16 14 15 13 12 8 11 15 12
87 81 62 60 72 87 100 99 100 65 80 55 66 23 10 23 88 78 38 59 38 25 16 12 28 56 71 84 86 82 62 66 75 87 77 36 18 15 16 16 8 7 9 9
89 99 92 82 74 67 89 71 82 68 79 58 59 50 17 12 18 21 38 52 50 35 18 11 21 90 100 98 88 91 73 88 91 84 93 71 45 24 13 17 18 10 6 6
98 75 76 75 59 68 69 75 93 66 56 58 45 38 37 17 10 14 26 39 62 48 29 19 11 52 97 94 87 92 98 85 92 92 91 88 72 64 20 11 17 16 13 11
100 99 99 97 95 76 66 52 100 74 46 48 39 29 36 27 11 12 25 39 58 57 37 29 15 19 79 93 86 74 82 84 83 96 97 85 74 64 41 20 10 16 15 13
100 100 100 100 100 100 71 85 100 99 56 41 31 24 54 47 15 17 34 43 58 62 45 32 23 12 27 60 72 74 86 82 70 85 94 86 74 61 53 37 10 10 11 10
100 100 100 100 100 100 100 57 66 100 70 46 30 20 56 82 58 42 46 49 63 68 53 37 28 18 8 9 16 30 79 77 69 70 84 95 82 72 65 58 18 9 10 8

GFSCGP_500_rhum_069.txt.gz
RH
6 5 4 7 10 5 4 8 23 32 56 68 90 56 50 65 99 66 72 56 28 10 10 16 20 20 19 22 20 22 7 11 34 32 42 42 26 21 26 29 20 22 48 78
6 5 6 5 7 12 6 4 6 21 53 73 80 79 52 54 79 80 98 82 39 17 9 11 18 19 20 22 20 22 8 10 33 33 32 31 25 36 29 24 23 21 46 32
7 7 8 7 6 6 14 8 5 8 42 62 67 86 76 56 86 91 86 97 44 23 8 8 7 10 18 17 20 21 10 8 27 33 36 36 31 35 24 22 21 20 33 28
7 8 7 6 6 6 6 14 12 8 21 52 80 97 88 69 67 85 91 83 58 21 18 11 15 9 15 11 18 19 14 8 16 34 22 36 37 32 18 27 16 18 23 40
11 8 8 7 7 8 6 10 15 14 18 14 43 74 80 88 81 90 82 85 61 31 22 18 17 10 8 7 14 17 16 7 10 34 17 23 22 25 23 20 10 14 19 38
15 12 8 8 8 7 8 11 9 9 14 11 14 39 38 44 62 66 50 72 59 39 35 30 22 16 7 4 6 15 15 7 8 25 14 17 21 25 21 19 11 9 15 32
21 18 16 10 7 8 8 8 9 9 7 3 10 17 13 19 48 28 50 72 67 51 43 40 33 24 12 7 4 10 16 12 6 10 16 13 19 23 17 16 10 9 8 24
20 18 17 29 19 11 8 10 8 6 5 5 13 11 10 15 29 27 43 44 76 67 52 54 48 40 32 27 10 4 13 14 8 7 11 11 16 19 14 14 18 12 9 12
19 19 20 19 23 22 24 21 14 13 6 12 14 12 15 25 32 25 19 23 55 52 65 74 76 63 44 31 36 32 5 14 10 6 6 10 10 16 14 14 14 17 14 12
15 16 32 28 19 14 14 18 48 29 13 12 9 7 19 40 58 52 51 55 50 86 34 92 74 68 67 53 43 41 32 5 13 10 6 9 8 12 13 9 9 18 20 18
10 12 18 42 42 42 50 36 70 50 19 14 21 9 18 72 60 53 51 51 55 54 29 35 79 76 64 54 49 44 44 23 5 11 9 8 10 9 13 10 6 9 20 30
18 13 8 11 16 22 32 31 33 46 32 23 28 6 36 68 70 63 57 44 46 51 54 55 34 93 90 68 31 46 54 41 18 5 11 11 10 11 10 13 12 8 8 12
11 13 18 16 12 35 18 24 57 59 45 28 45 9 49 67 71 79 63 62 55 53 57 64 73 15 78 46 28 30 63 54 23 5 5 11 13 14 12 12 14 14 12 6
10 8 7 11 20 27 38 23 28 38 39 21 50 13 27 63 74 80 95 56 50 57 66 76 86 30 32 47 35 31 71 76 40 9 3 5 12 13 14 14 11 14 18 15
15 15 19 12 8 34 39 26 30 36 19 21 28 16 36 58 73 86 89 77 63 59 84 96 77 44 29 80 54 35 67 86 63 31 7 3 7 12 14 14 13 11 15 18
13 18 18 18 16 16 35 51 37 38 14 8 8 17 86 64 77 88 94 84 71 77 73 94 82 73 25 27 62 62 40 94 91 60 30 7 3 7 13 17 17 18 15 15
31 41 46 37 36 34 24 28 49 45 23 13 11 15 92 70 67 84 88 94 83 82 87 77 54 76 35 80 82 63 97 50 92 91 61 14 5 3 8 13 15 14 21 17
60 68 35 55 77 82 41 39 96 75 48 32 16 49 58 70 78 74 91 92 91 76 85 84 76 52 30 41 42 67 83 55 44 78 83 35 10 5 3 9 14 14 13 16
63 61 73 74 89 80 73 75 78 100 99 69 35 29 33 44 93 58 93 82 91 79 66 88 68 53 32 22 21 93 95 86 58 61 69 85 65 20 7 9 13 14 15 13
64 81 71 65 100 79 66 64 84 78 95 91 57 43 31 15 78 69 74 88 79 70 65 53 65 67 57 24 23 43 32 14 81 67 56 93 80 56 13 13 16 16 14 14
68 85 94 97 72 52 62 58 85 100 90 99 90 77 54 35 21 76 61 61 95 89 74 59 59 68 67 50 19 82 84 31 68 68 77 75 69 63 50 19 13 15 15 12
96 82 94 94 98 84 82 81 68 80 83 100 99 100 76 52 34 14 52 82 86 94 96 86 75 97 57 90 98 23 38 57 49 74 63 68 65 64 61 38 18 12 13 10
92 91 69 76 95 99 92 58 75 57 73 100 93 100 75 59 47 24 10 43 91 90 94 86 100 100 67 77 95 93 53 92 26 54 75 73 76 82 64 37 23 14 13 12
77 87 86 100 94 71 74 90 76 88 46 64 94 93 76 53 58 40 16 12 48 96 100 83 88 96 89 55 54 51 44 31 24 26 54 79 78 84 72 48 40 42 18 13
92 98 97 95 99 97 75 67 67 76 79 40 55 89 80 74 80 42 27 13 9 45 86 96 100 91 86 73 48 23 12 9 10 14 42 55 80 88 79 69 80 78 59 23
29 59 94 99 99 100 100 97 96 72 73 59 37 61 84 83 76 66 31 20 10 10 37 93 96 98 98 96 41 14 10 8 10 17 27 35 57 85 91 82 69 59 76 71

GFSCGP_500_rhum_072.txt.gz
RH
6 5 4 9 11 5 4 12 28 40 48 94 92 34 41 57 66 71 94 63 27 9 19 24 23 20 23 19 22 24 10 11 31 22 40 43 25 22 29 31 30 31 61 25
6 6 6 6 11 11 5 4 17 41 45 41 70 51 38 55 57 58 91 79 65 17 12 19 23 23 24 22 21 23 10 11 35 32 44 35 20 28 24 32 20 47 31 25
7 8 8 8 6 11 12 5 5 34 41 44 50 51 52 75 71 63 81 85 62 29 7 12 24 26 23 22 22 24 14 11 32 36 36 29 29 31 22 27 21 40 19 30
8 9 7 7 7 6 10 14 7 23 31 47 45 50 68 71 66 57 69 84 89 52 10 8 14 26 26 20 21 24 18 9 26 38 46 39 34 26 19 23 21 28 28 32
11 10 8 8 8 8 7 14 18 8 18 36 43 29 82 92 77 58 69 87 87 63 29 10 16 24 24 18 23 22 24 9 16 37 35 39 42 30 21 18 16 21 31 24
17 14 10 8 8 8 9 9 12 18 10 12 34 32 32 39 54 39 57 59 90 76 62 16 16 11 14 10 18 21 21 13 10 28 39 28 26 33 24 19 14 16 28 33
21 19 16 13 9 8 8 9 10 10 14 10 36 44 24 26 37 42 53 50 88 92 81 44 24 16 6 4 9 22 20 21 12 17 32 24 23 33 26 21 13 11 20 30
24 23 20 15 13 11 8 7 7 8 6 8 15 41 49 59 67 65 65 42 51 76 79 68 37 23 10 6 6 15 22 22 15 12 30 21 18 27 26 16 14 10 16 27
27 24 22 20 19 14 16 14 13 8 8 10 10 9 17 46 40 27 34 48 28 16 31 78 53 34 21 7 7 6 18 21 21 12 13 24 16 20 24 15 16 15 10 13
27 25 24 21 20 19 19 28 31 17 15 22 11 10 19 50 32 50 34 50 51 55 42 68 70 64 64 32 13 4 7 19 21 17 10 12 16 14 23 18 14 18 14 13
22 20 29 34 27 25 24 32 31 20 18 14 10 10 41 66 60 51 54 31 50 61 48 43 39 58 75 64 36 26 7 8 16 18 12 8 10 12 14 19 14 12 20 21
16 12 14 42 51 47 37 29 23 18 26 15 14 19 40 78 76 62 62 26 35 53 53 63 47 44 64 69 58 44 37 20 8 12 18 13 7 12 10 17 16 10 11 21
8 11 14 13 57 72 56 59 47 32 20 28 20 23 42 75 77 70 65 58 39 38 27 71 64 57 88 81 50 52 44 45 33 7 11 17 12 9 12 11 18 16 12 11
14 8 6 8 14 18 36 67 62 28 26 27 30 22 33 55 76 75 69 56 33 44 54 80 70 58 28 52 63 58 50 51 45 20 6 8 18 16 9 12 13 17 16 18
12 9 11 10 9 8 14 19 57 34 25 22 34 40 45 51 63 74 74 61 46 45 58 69 43 37 32 31 38 38 55 56 49 26 9 4 7 18 17 11 13 15 15 18
10 9 8 8 8 8 10 8 20 26 44 54 32 31 30 37 46 66 80 67 43 47 38 66 53 64 69 61 49 59 61 64 58 48 18 7 4 7 16 17 14 13 14 13
8 9 9 9 12 13 12 10 11 16 82 64 37 15 16 31 46 52 74 83 69 38 74 83 51 46 68 49 42 38 54 45 70 51 37 12 8 6 5 15 17 16 14 13
12 14 16 19 23 19 16 18 22 14 28 77 57 28 12 18 67 46 66 83 86 66 21 50 72 88 58 61 46 46 67 83 76 81 62 43 13 7 5 6 15 19 16 14
17 18 31 32 24 25 41 42 58 34 17 53 78 58 19 14 46 79 69 76 92 82 56 27 68 92 96 90 67 52 77 93 89 89 70 50 30 11 5 4 8 16 18 16
30 29 33 45 29 37 37 61 83 63 55 28 73 72 45 25 24 75 85 80 94 96 77 40 51 78 87 95 91 86 95 93 94 92 97 71 57 63 30 7 5 11 16 16
38 37 40 53 40 44 46 61 90 91 82 59 76 100 80 44 22 26 76 86 99 96 97 91 83 82 71 75 70 76 65 58 81 93 95 88 85 67 37 17 21 14 16 17
38 40 52 62 63 51 59 59 64 62 59 50 48 85 100 56 44 43 27 80 88 96 97 99 100 95 100 86 43 40 42 22 36 43 60 82 69 81 79 38 20 23 16 16
47 46 51 62 78 68 60 69 63 59 58 61 45 49 61 93 82 74 41 26 68 90 96 97 90 86 76 64 44 30 18 20 75 84 63 76 81 89 82 70 50 20 14 16
18 37 66 81 83 79 81 90 65 55 69 54 50 53 56 65 89 92 64 36 29 75 90 96 97 86 82 74 86 65 43 25 28 84 98 84 83 96 81 81 67 43 25 13
19 23 29 42 73 83 81 77 77 67 55 70 64 56 50 67 93 82 81 56 37 28 60 88 97 95 96 87 95 68 85 34 33 69 71 78 90 100 86 88 78 62 34 20
19 20 24 26 33 58 86 83 77 76 64 65 51 50 53 36 46 70 78 52 51 34 19 38 83 98 97 95 94 96 93 89 39 91 86 96 69 84 80 91 89 69 48 65

GFSCGP_500_rhum_075.txt.gz
RH
5 5 10 14 8 5 4 15 41 50 28 22 31 42 56 59 83 85 58 46 42 18 21 20 24 19 20 22 25 15 13 8 20 16 40 37 26 28 31 33 42 55 31 24
8 7 6 8 15 10 5 6 38 50 44 31 23 21 33 38 51 65 73 70 55 26 21 20 17 20 22 21 22 15 11 12 30 23 41 38 24 30 47 36 36 56 22 27
8 10 10 7 7 15 10 6 30 65 51 37 32 19 21 28 45 55 74 76 62 74 13 26 21 21 20 19 22 18 10 24 34 32 52 35 41 38 40 21 34 36 34 20
10 9 8 10 8 8 14 12 22 65 42 38 36 35 22 31 68 44 69 77 79 52 18 18 25 23 20 19 20 21 8 21 37 36 42 31 35 34 31 20 28 29 35 44
12 11 9 8 10 10 14 19 12 51 48 36 32 26 20 68 66 61 60 72 91 47 57 15 26 25 19 15 19 21 11 13 39 41 40 30 36 33 26 20 22 30 36 35
17 15 12 10 9 9 13 13 18 12 24 22 29 18 16 19 83 75 66 53 70 78 49 12 22 24 21 15 16 19 17 9 29 40 37 42 41 32 31 20 21 23 34 29
24 20 17 13 10 9 9 12 13 16 15 15 28 28 30 44 73 60 49 73 94 64 74 25 21 18 11 15 18 16 20 10 14 42 39 32 35 36 26 20 16 18 31 34
27 22 20 17 15 12 10 10 10 10 11 18 25 41 44 35 40 38 33 33 91 88 90 60 30 18 13 10 9 19 18 20 10 20 40 30 25 35 31 26 17 13 21 32
30 28 24 20 18 18 16 13 11 10 11 13 23 36 48 51 50 32 33 16 28 42 92 78 73 36 21 10 8 15 17 17 14 12 26 33 23 30 32 19 20 16 15 26
35 30 29 26 22 22 24 23 19 11 13 17 19 29 25 36 44 44 25 14 12 17 27 37 72 61 25 17 10 5 12 14 12 11 14 34 23 24 27 21 16 15 12 19
31 32 35 29 27 26 28 25 25 26 27 21 24 18 14 21 22 25 24 12 9 16 25 53 67 81 47 59 42 28 8 12 16 10 11 20 32 21 22 23 15 16 18 12
18 20 34 37 32 27 25 24 30 34 40 41 30 17 11 15 16 16 23 23 8 9 11 27 64 60 68 69 76 59 26 7 12 19 12 10 15 21 17 22 20 15 17 19
20 17 31 60 48 37 36 29 25 28 43 50 46 19 16 14 20 26 31 27 17 11 11 27 37 62 61 53 72 84 45 37 19 10 19 14 9 15 17 15 20 16 13 13
13 11 15 22 50 52 50 52 40 40 46 46 32 20 20 20 17 28 28 34 23 19 13 14 20 44 62 47 61 78 60 51 44 29 10 16 13 9 11 14 13 18 13 9
11 8 8 8 13 26 49 68 68 62 56 56 37 34 23 24 23 24 39 50 43 20 32 29 17 47 63 46 66 76 65 61 52 38 31 9 15 12 8 12 12 14 16 16
8 10 11 9 6 8 10 15 28 47 51 43 39 26 26 33 28 30 44 58 52 47 29 30 24 40 56 75 69 78 71 66 62 42 41 32 9 14 11 10 11 11 14 18
6 8 13 10 8 8 8 7 7 8 9 20 35 21 17 17 23 25 38 60 62 66 50 37 21 37 52 56 39 32 60 72 58 57 53 43 38 24 14 14 11 10 13 15
10 9 12 10 9 10 10 9 9 9 10 8 11 23 22 15 15 16 23 43 64 68 62 54 37 18 36 57 62 66 80 80 74 77 58 45 26 39 36 17 15 13 12 13
19 16 14 12 12 14 13 10 10 8 9 10 6 8 15 17 19 13 13 23 63 71 73 68 46 39 34 48 65 63 70 56 68 60 64 52 30 16 18 21 11 16 15 14
22 19 17 16 16 16 18 21 18 17 12 10 10 8 8 15 34 24 14 14 26 93 74 79 64 40 51 53 59 60 72 74 66 59 85 78 43 23 12 8 6 8 15 15
28 27 26 26 23 19 22 27 30 23 22 29 31 30 20 11 26 49 29 14 14 30 98 83 88 46 48 37 84 86 68 89 85 81 90 96 81 60 35 22 15 13 10 19
28 27 27 24 22 23 31 33 45 41 37 40 58 65 62 38 20 65 73 32 20 18 53 97 88 72 49 44 64 63 86 96 98 90 96 97 96 80 82 83 79 17 6 20
14 15 21 28 37 40 39 41 50 56 50 49 52 62 64 63 37 38 92 81 42 22 33 70 98 93 64 71 74 99 54 75 96 92 83 75 55 79 95 97 61 31 12 9
14 13 12 13 17 26 41 55 64 68 75 63 53 51 51 51 46 44 46 100 82 44 24 34 82 94 90 80 94 93 93 90 92 92 80 82 51 56 82 90 64 50 26 30
21 22 26 28 28 26 17 28 58 73 75 73 74 55 49 37 36 34 47 53 94 68 38 26 50 94 94 88 85 93 94 53 71 75 48 41 44 62 67 74 60 98 74 52
24 25 25 26 34 38 37 19 21 58 75 76 72 63 48 44 42 40 45 50 50 86 68 36 30 51 88 94 90 99 100 100 82 67 29 24 58 96 97 80 91 97 84 82